Regional Weather Roundup
Issued by NWS

Home | Current Version | Previous Version | Text Only | Print | Product List | Glossary On
Versions: 1 2 3 4 5 6 7 8 9 10 11 12 13 14 15 16 17 18 19 20 21 22 23 24 25 26 27 28 29 30 31 32 33 34 35 36 37 38 39 40 41 42 43 44 45 46 47 48 49 50
000
ASUS45 KBOI 240610
RWRID

IDAHO REGIONAL WEATHER ROUNDUP
NATIONAL WEATHER SERVICE BOISE ID
1200 AM MDT MON APR 24 2017

NOTE: "FAIR" INDICATES FEW OR NO CLOUDS BELOW 12000 FEET
WITH NO SIGNIFICANT WEATHER AND/OR OBSTRUCTIONS TO VISIBILITY

IDZ012-014-240700-
SOUTHWEST IDAHO


CITY           SKY/WX    TMP DP  RH WIND       PRES   REMARKS
BOISE          CLOUDY    53  42  66 S3        29.75F
CALDWELL       CLOUDY    53  44  71 CALM      29.75F
MOUNTAIN HOME  CLOUDY    50  45  83 W3        29.76F
$$

IDZ016-017-240700-
SOUTHCENTRAL IDAHO


CITY           SKY/WX    TMP DP  RH WIND       PRES   REMARKS
BURLEY         MOCLDY    48  35  60 S7        29.79R
JEROME         CLOUDY    48  38  68 SW5       29.79F
TWIN FALLS     CLOUDY    46  39  76 S9        29.80F
$$

IDZ019>023-240700-
SOUTHEAST IDAHO


CITY           SKY/WX    TMP DP  RH WIND       PRES   REMARKS
IDAHO FALLS    CLOUDY    48  35  60 S10       29.77F
POCATELLO      CLOUDY    50  36  58 S12       29.79S
REXBURG        PTCLDY    40  35  83 N3        29.76F
$$

IDZ006-010-011-018-031-032-240700-
CENTRAL IDAHO MOUNTAINS


CITY           SKY/WX    TMP DP  RH WIND       PRES   REMARKS
MCCALL         CLOUDY    37  35  92 CALM      29.77F
HAILEY         CLOUDY    43  32  65 N7        29.80F
STANLEY          N/A     36  32  85 CALM      29.81F
SALMON         CLOUDY    41  37  87 CALM      29.76F
CHALLIS        CLOUDY    39  33  79 CALM      29.77S
$$

IDZ002-004-006-007-026-240700-
NORTHERN IDAHO


CITY           SKY/WX    TMP DP  RH WIND       PRES   REMARKS
LEWISTON       LGT RAIN  49  44  83 CALM      29.80F
LOWELL           N/A     46  44  93 CALM      29.84F
COEUR D`ALENE  CLOUDY    48  37  65 SW14      29.75S
MULLAN PASS    CLOUDY    32  31  96 VRB3      29.74F
$$



USA.gov is the U.S. government's official web portal to all federal, state and local government web resources and services.